Regional Weather Roundup
Issued by NWS Charleston, SC

Current Version | Previous Version | Graphics & Text | Print | Product List | Glossary On
Versions: 1 2 3 4 5 6 7 8 9 10 11 12 13 14 15 16 17 18 19 20 21 22 23 24 25 26 27 28 29 30 31 32 33 34 35 36 37 38 39 40 41 42 43 44 45 46 47 48 49 50
000
ASUS42 KCHS 231727
RWRCHS

Regional Weather Roundup
National Weather Service Charleston SC
1200 PM EST TUE JAN 23 2018

NOTE: "fair" indicates few or no clouds below 12,000 feet with no
significant weather and/or obstructions to visibility.

Not all stations are quality controlled. Use data with caution,
especially dewpoint observations.

SCZ027-030-031-034>040-042>050-231800-
...Southeast South Carolina...

CITY           SKY/WX    TMP DP  RH WIND       PRES   REMARKS
N Charleston   PTSUNNY   74  64  71 SW15G23   29.90F
Waterfront Prk   N/A     62  61  96 SW9       29.78F
Mount Pleasant CLOUDY    68  64  88 SW7       29.90F
Johns Island   PTSUNNY   70  64  83 S9        29.91F
Pinopolis        N/A     64  61  88 SW14G21   29.82F
Moncks Corner  CLOUDY    70  61  73 SW14G21   29.89F
Summerville    FAIR      70  61  73 SW6G18    29.90F
Beaufort MCAS  PTSUNNY   74  64  71 W18G28    29.92F
Beaufort Arpt  FAIR      72  63  73 W15G22    29.91F
Hilton Head Is PTSUNNY   72  64  78 SW17      29.94F
Walterboro     FAIR      72  59  64 SW18G31   29.90F
Allendale      FAIR      70  50  49 W14G22    29.93S

...Southern Midlands and Pee Dee...

CITY           SKY/WX    TMP DP  RH WIND       PRES   REMARKS
Georgetown     CLOUDY    68  66  94 SW14      29.90F
Kingstree      FAIR      70  59  68 SW13G22   29.87F
Orangeburg     FAIR      69  54  58 W23G31    29.90S
Barnwell         N/A     70  50  49 SW16G25   29.92F
Aiken          FAIR      63  37  39 W16G25    29.95F
Manning        FAIR      72  52  49 MISG      29.87F
Columbia       FAIR      69  48  47 W23G32    29.89F
Sumter         FAIR      70  55  59 W18G32    29.85F
Florence       PTSUNNY   73  59  61 SW22G32   29.84F
Myrtle Beach   CLOUDY    70  63  78 SW12G22   29.89F
N Myrtle Beach PTSUNNY   58  56  93 SW17      29.88F

$$

GAZ063-065-086>088-099>101-113>116-118-119-134>141-150-231800-
...Southeast Georgia...

CITY           SKY/WX    TMP DP  RH WIND       PRES   REMARKS
Savannah Arpt  PTSUNNY   75  60  59 W21G31    29.94F
Hunter AAF     PTSUNNY   74  61  62 W18G26    29.92F
Fort Stewart   FAIR      72  57  60 W13G23    29.94F
Statesboro     FAIR      68  42  38 W16G22    29.97S
Sylvania       FAIR      68  50  51 W12G17    29.97S
Claxton        FAIR      71  53  54 SW12G22   29.98S

...CSRA, Central and far Southeast Georgia...

CITY           SKY/WX    TMP DP  RH WIND       PRES   REMARKS
Thomson        FAIR      59  29  31 N13G22    30.01F
Augusta-Bush   FAIR      66  36  32 W16G24    29.94F
Augusta-Daniel FAIR      64  33  31 MISG      29.95F
Swainsboro     FAIR      64  41  42 W10       29.99F
Vidalia        FAIR      68  43  40 W9        30.00F
Eastman        FAIR      64   8  11 W12G17    30.05S
Hazlehurst     FAIR      69  34  27 W6        30.00F
Alma           FAIR      66  44  45 W15G22    30.02S
Waycross       PTSUNNY   68  51  54 NW12G18   30.02R
Jesup          FAIR      72  54  53 W13G18    29.99S
Baxley         FAIR      64  45  48 W10G17    30.01S
Brunswick      CLOUDY    73  61  64 SW15G25   29.98F
Saint Simons   FAIR      71  65  81 W12       29.98F

$$

SCZ027-028-034-036>038-045-046-048>050-GAZ119-141-231800-
...Lake and Supplemental Coastal Observations...

STATION/POSITION TIME  TEMP    WIND        PRES    WAVE   SWELL
                       AIR SEA DIR/SP/G            HT/PER HT/PER/DIR
                 (UTC) (F)     (DEG/KT/KT) (MB)    (FT/S) (FT/S/D)
Winyah Bay       1630   67     230/ 12     1013.0S
Lake Murray      1630   62     240/ 18/ 24 1011.9S
ACE Basin NERRS  1645   70     220/  4     1013.0F
Fort Pulaski     1700   70 47  260/ 11/ 16 1014.0
Sapelo Island    1700   66     260/ 12     1015.0

$$

ANZ835-935-AMZ111-154-330-350-352-354-370-450-454-472-231800-
...C-MAN and Buoy Observations...

STATION/POSITION TIME  TEMP    WIND        PRES    WAVE   SWELL
                       AIR SEA DIR/SP/G            HT/PER HT/PER/DIR
                 (UTC) (F)     (DEG/KT/KT) (MB)    (FT/S) (FT/S/D)
Buoy 41004       1710   68 69  220/ 23/ 29 1012.9
Buoy 41008       1650   55 51  190/ 12/ 12 1014.8F   4/ 6   3/100/ 6
Folly Beach CMAN 1700   59     230/ 12/ 19 1013.9F
Capers Nearshore 1708   52 53  250/ 12/ 17 1012.8F
Fripp Nearshore  1708   50 49  230/ 10/ 14 1016.5R


STATION/POSITION TIME  TEMP    WIND        PRES    WAVE   SWELL
                       AIR SEA DIR/SP/G            HT/PER HT/PER/DIR
                 (UTC) (F)     (DEG/KT/KT) (MB)    (FT/S) (FT/S/D)
5E St. Marys GA  1700      51                N/A     3/ 6
Frying Pan Buoy  1710   66 65  230/ 17/ 23 1012.2
Buoy 41025       1710   68 70  230/ 27/ 39 1011.1
Cape Lookout NC  1700          220/ 15/ 20 1011.5F
Buoy 41002       1650   71 70  170/ 19/ 23 1017.0F   6/ 6   2/110/ 9
Buoy 41010       NOT AVBL
St Augustine FL  1700   73 53  250/ 11/ 13 1016.5F


$$



USA.gov is the U.S. government's official web portal to all federal, state and local government web resources and services.